QTR6 EGLL-OTHH

Flight info

Callsign QTR6
Flight time N/A
Altitude 33000
Route MAXIT Y803 MID L612 BOGNA UL612 OGULO DCT OKASI DCT OKEKO DCT OKEPI DCT MOKIP DCT TUFTA DCT GEVEA DCT ORSUD DCT BIBAN DCT AMTEL DCT ERIKA DCT IPKAM DCT RUTOM DCT SALUN N705 MMA P751 DASUM Y234 TAMAM/N0487F350 Y234 FYM M872 BDB Y214 RAPMA DCT LADBO/N0519F290 T142 LAEEB
Aircraft B77W/H-SDE1E2E3FGHIJ2J3J4J5M1RWXY/LB1D1

Departure

Time N/A
Airport London Heathrow Airport (EGLL)

Arrival

Time 2026-05-04 16:26
Airport Hamad International Airport (OTHH)
Time Latitude Longitude Altitude Speed Heading
2026-05-04 13:57 28.53259 31.45598 33070 ft 552 kts 123°
2026-05-04 13:58 28.47671 31.57060 33081 ft 552 kts 123°
2026-05-04 13:58 28.42031 31.68604 33066 ft 551 kts 124°
2026-05-04 13:59 28.38263 31.76296 33071 ft 553 kts 124°
2026-05-04 13:59 28.34487 31.83988 33527 ft 559 kts 124°
2026-05-04 14:00 28.32603 31.87824 33773 ft 553 kts 124°
2026-05-04 14:00 28.28874 31.95407 34279 ft 549 kts 124°
2026-05-04 14:00 28.26995 31.99220 34530 ft 550 kts 124°
2026-05-04 14:01 28.25145 32.02971 34779 ft 549 kts 124°
2026-05-04 14:01 28.23264 32.06782 35031 ft 550 kts 124°
2026-05-04 14:01 28.19538 32.14320 35529 ft 548 kts 124°
2026-05-04 14:02 28.17676 32.18083 35793 ft 547 kts 124°
2026-05-04 14:02 28.15816 32.21840 36031 ft 547 kts 125°
2026-05-04 14:02 28.13998 32.25502 36065 ft 550 kts 124°
2026-05-04 14:03 28.10262 32.33029 36065 ft 548 kts 124°
2026-05-04 14:03 28.06531 32.40530 36064 ft 545 kts 124°
2026-05-04 14:04 28.00941 32.51743 36074 ft 547 kts 125°
2026-05-04 14:04 27.97208 32.59216 36066 ft 545 kts 124°
2026-05-04 14:05 27.91584 32.70446 36050 ft 544 kts 125°
2026-05-04 14:06 27.87820 32.77944 36050 ft 549 kts 125°
2026-05-04 14:06 27.84060 32.85425 36052 ft 547 kts 125°
2026-05-04 14:07 27.80310 32.92872 36048 ft 546 kts 125°
2026-05-04 14:07 27.76552 33.00319 36036 ft 549 kts 125°
2026-05-04 14:08 27.72787 33.07770 36028 ft 547 kts 125°
2026-05-04 14:08 27.69012 33.15227 36003 ft 547 kts 125°
2026-05-04 14:09 27.63344 33.26398 35993 ft 548 kts 125°
2026-05-04 14:10 27.57677 33.37538 35990 ft 549 kts 126°
2026-05-04 14:10 27.53876 33.44993 35982 ft 546 kts 125°
2026-05-04 14:11 27.50096 33.52397 35990 ft 547 kts 126°
2026-05-04 14:11 27.44400 33.63526 35978 ft 544 kts 126°
2026-05-04 14:12 27.40618 33.70902 35945 ft 543 kts 126°
2026-05-04 14:13 27.34992 33.81845 35940 ft 547 kts 126°
2026-05-04 14:13 27.31205 33.89200 35943 ft 543 kts 126°
2026-05-04 14:14 27.27417 33.96541 35940 ft 545 kts 126°
2026-05-04 14:14 27.21712 34.07575 35930 ft 543 kts 126°
2026-05-04 14:15 27.14099 34.22253 35926 ft 546 kts 126°
2026-05-04 14:16 27.08370 34.33268 35922 ft 548 kts 127°
2026-05-04 14:17 27.02640 34.44258 35926 ft 545 kts 127°
2026-05-04 14:18 26.96903 34.55235 35926 ft 543 kts 127°
2026-05-04 14:19 26.89226 34.69877 35904 ft 545 kts 127°
2026-05-04 14:19 26.85401 34.77156 35912 ft 545 kts 127°
2026-05-04 14:20 26.81558 34.84456 35910 ft 543 kts 127°
2026-05-04 14:20 26.77729 34.91719 35908 ft 545 kts 126°
2026-05-04 14:21 26.73102 35.03503 35908 ft 555 kts 118°
2026-05-04 14:21 26.70210 35.11465 35908 ft 554 kts 118°
2026-05-04 14:22 26.67306 35.19419 35913 ft 555 kts 117°
2026-05-04 14:22 26.64429 35.27267 35908 ft 554 kts 117°
2026-05-04 14:23 26.60048 35.39171 35899 ft 554 kts 118°
2026-05-04 14:24 26.57106 35.47137 35904 ft 555 kts 118°
2026-05-04 14:24 26.54122 35.55050 35902 ft 555 kts 118°
2026-05-04 14:25 26.51100 35.62953 35907 ft 552 kts 118°
2026-05-04 14:25 26.46563 35.74797 35893 ft 554 kts 119°
2026-05-04 14:26 26.43523 35.82714 35888 ft 554 kts 119°
2026-05-04 14:26 26.40495 35.90592 35890 ft 551 kts 119°
2026-05-04 14:27 26.37466 35.98453 35887 ft 555 kts 119°
2026-05-04 14:27 26.34431 36.06321 35886 ft 553 kts 119°
2026-05-04 14:28 26.31398 36.14166 35902 ft 553 kts 119°
2026-05-04 14:28 26.28356 36.22017 35903 ft 553 kts 119°
2026-05-04 14:29 26.22264 36.37700 35900 ft 551 kts 119°
2026-05-04 14:30 26.19212 36.45532 35905 ft 552 kts 119°
2026-05-04 14:31 26.13980 36.56875 35907 ft 548 kts 125°
2026-05-04 14:32 26.06661 36.71706 35886 ft 545 kts 126°
2026-05-04 14:32 26.03073 36.78963 35874 ft 544 kts 126°
2026-05-04 14:33 25.99419 36.86338 35868 ft 545 kts 126°
2026-05-04 14:33 25.95768 36.93703 35876 ft 543 kts 126°
2026-05-04 14:34 25.92116 37.01054 35883 ft 544 kts 126°
2026-05-04 14:34 25.88439 37.08444 35896 ft 545 kts 126°
2026-05-04 14:35 25.84773 37.15803 35907 ft 542 kts 126°
2026-05-04 14:35 25.81116 37.23127 35911 ft 545 kts 126°
2026-05-04 14:36 25.77476 37.30434 35926 ft 543 kts 126°
2026-05-04 14:36 25.73802 37.37819 35935 ft 544 kts 126°
2026-05-04 14:37 25.70150 37.45144 35946 ft 544 kts 126°
2026-05-04 14:37 25.66500 37.52454 35959 ft 542 kts 126°
2026-05-04 14:38 25.62850 37.59752 35966 ft 542 kts 126°
2026-05-04 14:38 25.59180 37.67074 35958 ft 544 kts 126°
2026-05-04 14:39 25.55515 37.74380 35966 ft 541 kts 126°
2026-05-04 14:39 25.51854 37.81662 35974 ft 541 kts 126°
2026-05-04 14:40 25.46368 37.92556 35979 ft 540 kts 126°
2026-05-04 14:40 25.42702 37.99818 35988 ft 541 kts 126°
2026-05-04 14:41 25.39015 38.07111 35992 ft 542 kts 126°
2026-05-04 14:42 25.31642 38.21666 35980 ft 542 kts 126°
2026-05-04 14:42 25.28003 38.28831 35986 ft 542 kts 126°
2026-05-04 14:43 25.24299 38.36112 35979 ft 543 kts 126°
2026-05-04 14:43 25.20585 38.43402 35987 ft 546 kts 126°
2026-05-04 14:44 25.16871 38.50681 35983 ft 545 kts 126°
2026-05-04 14:44 25.13128 38.57995 35998 ft 547 kts 126°
2026-05-04 14:45 25.09390 38.65288 36015 ft 546 kts 127°
2026-05-04 14:45 25.05636 38.72597 36021 ft 546 kts 127°
2026-05-04 14:46 25.01900 38.79861 36034 ft 547 kts 126°
2026-05-04 14:46 24.98143 38.87155 36001 ft 547 kts 126°
2026-05-04 14:47 24.94401 38.94409 35966 ft 545 kts 127°
2026-05-04 14:47 24.90637 39.01684 35941 ft 545 kts 126°
2026-05-04 14:48 24.86883 39.08931 35952 ft 544 kts 126°
2026-05-04 14:48 24.83132 39.16160 35963 ft 542 kts 126°
2026-05-04 14:49 24.79371 39.23396 35961 ft 544 kts 126°
2026-05-04 14:49 24.75633 39.30584 35982 ft 541 kts 126°
2026-05-04 14:50 24.71879 39.37787 36012 ft 541 kts 127°
2026-05-04 14:50 24.68139 39.44955 36045 ft 541 kts 126°
2026-05-04 14:51 24.64388 39.52132 36045 ft 541 kts 126°
2026-05-04 14:51 24.60634 39.59303 36026 ft 540 kts 126°
2026-05-04 14:52 24.56908 39.66532 35994 ft 543 kts 122°
2026-05-04 14:52 24.54480 39.74382 35978 ft 559 kts 105°
2026-05-04 14:53 24.53526 39.82890 35986 ft 560 kts 100°
2026-05-04 14:53 24.52724 39.91400 35999 ft 561 kts 100°
2026-05-04 14:54 24.51912 39.99910 36013 ft 559 kts 100°
2026-05-04 14:54 24.51092 40.08403 36021 ft 559 kts 100°
2026-05-04 14:55 24.50267 40.16867 36040 ft 558 kts 100°
2026-05-04 14:55 24.49433 40.25353 36046 ft 557 kts 100°
2026-05-04 14:56 24.48599 40.33786 36043 ft 556 kts 100°
2026-05-04 14:56 24.47760 40.42222 36041 ft 556 kts 101°
2026-05-04 14:57 24.46916 40.50654 36042 ft 556 kts 101°
2026-05-04 14:57 24.46067 40.59084 36044 ft 554 kts 100°
2026-05-04 14:58 24.45206 40.67578 36026 ft 555 kts 101°
2026-05-04 14:58 24.44494 40.74563 36027 ft 553 kts 101°
2026-05-04 14:59 24.43490 40.84340 36036 ft 555 kts 101°
2026-05-04 15:00 24.42195 40.96872 36032 ft 550 kts 101°
2026-05-04 15:00 24.41329 41.05202 36035 ft 549 kts 101°
2026-05-04 15:01 24.40019 41.17720 36042 ft 550 kts 101°
2026-05-04 15:01 24.39137 41.26094 36050 ft 552 kts 101°
2026-05-04 15:02 24.38256 41.34427 36057 ft 551 kts 101°
2026-05-04 15:02 24.37379 41.42667 36066 ft 551 kts 101°
2026-05-04 15:03 24.36477 41.51104 36079 ft 552 kts 101°
2026-05-04 15:03 24.35578 41.59467 36079 ft 551 kts 101°
2026-05-04 15:04 24.34670 41.67861 36062 ft 552 kts 101°
2026-05-04 15:04 24.33760 41.76248 36063 ft 551 kts 102°
2026-05-04 15:05 24.32837 41.84574 36056 ft 550 kts 103°
2026-05-04 15:05 24.31730 41.92850 36057 ft 552 kts 103°
2026-05-04 15:06 24.30609 42.01131 36062 ft 549 kts 103°
2026-05-04 15:07 24.28930 42.13543 36062 ft 548 kts 103°
2026-05-04 15:07 24.27814 42.21778 36062 ft 547 kts 103°
2026-05-04 15:08 24.26694 42.30013 36057 ft 547 kts 103°
2026-05-04 15:08 24.25572 42.38237 36051 ft 547 kts 103°
2026-05-04 15:09 24.24441 42.46494 36055 ft 547 kts 103°
2026-05-04 15:09 24.23306 42.54751 36058 ft 545 kts 103°
2026-05-04 15:10 24.21599 42.67112 36051 ft 545 kts 103°
2026-05-04 15:11 24.19884 42.79448 36056 ft 548 kts 103°
2026-05-04 15:11 24.18736 42.87671 36063 ft 547 kts 103°
2026-05-04 15:12 24.17584 42.95891 36068 ft 545 kts 103°
2026-05-04 15:12 24.16443 43.03992 36074 ft 546 kts 103°
2026-05-04 15:13 24.15277 43.12243 36075 ft 545 kts 103°
2026-05-04 15:13 24.14119 43.20403 36077 ft 544 kts 103°
2026-05-04 15:14 24.12955 43.28570 36078 ft 545 kts 103°
2026-05-04 15:14 24.11786 43.36744 36088 ft 544 kts 103°
2026-05-04 15:15 24.10617 43.44894 36093 ft 544 kts 103°
2026-05-04 15:15 24.09440 43.53054 36101 ft 543 kts 103°
2026-05-04 15:16 24.07672 43.65263 36090 ft 542 kts 103°
2026-05-04 15:17 24.05888 43.77508 36063 ft 543 kts 103°
2026-05-04 15:17 24.04101 43.89714 36069 ft 541 kts 103°
2026-05-04 15:18 24.02905 43.97836 36069 ft 543 kts 103°
2026-05-04 15:19 24.01106 44.10005 36074 ft 540 kts 103°
2026-05-04 15:19 23.99300 44.22146 36080 ft 539 kts 103°
2026-05-04 15:20 23.98091 44.30240 36083 ft 540 kts 103°
2026-05-04 15:20 23.96880 44.38313 36094 ft 539 kts 103°
2026-05-04 15:21 23.95662 44.46403 36098 ft 540 kts 103°
2026-05-04 15:22 23.93832 44.58509 36101 ft 538 kts 103°
2026-05-04 15:22 23.92006 44.70527 36073 ft 537 kts 103°
2026-05-04 15:23 23.90773 44.78599 36067 ft 538 kts 103°
2026-05-04 15:23 23.89536 44.86668 36070 ft 537 kts 103°
2026-05-04 15:24 23.87057 45.02760 36066 ft 536 kts 103°
2026-05-04 15:25 23.85812 45.10794 36062 ft 535 kts 103°
2026-05-04 15:26 23.83941 45.22824 36060 ft 536 kts 102°
2026-05-04 15:26 23.82064 45.34822 36048 ft 536 kts 102°
2026-05-04 15:27 23.80177 45.46824 36032 ft 536 kts 102°
2026-05-04 15:28 23.78285 45.58794 36018 ft 535 kts 102°
2026-05-04 15:29 23.76380 45.70788 35993 ft 532 kts 103°
2026-05-04 15:30 23.71912 45.98673 35990 ft 532 kts 102°
2026-05-04 15:31 23.69990 46.10565 36011 ft 532 kts 102°
2026-05-04 15:32 23.66769 46.30370 36042 ft 532 kts 102°
2026-05-04 15:34 23.63512 46.50226 36075 ft 531 kts 102°
2026-05-04 15:34 23.61554 46.62084 36051 ft 530 kts 102°
2026-05-04 15:35 23.59583 46.73963 36001 ft 529 kts 103°
2026-05-04 15:36 23.57608 46.85809 35973 ft 530 kts 103°
2026-05-04 15:36 23.56287 46.93703 35961 ft 531 kts 103°
2026-05-04 15:37 23.54959 47.01607 35946 ft 530 kts 102°
2026-05-04 15:37 23.53630 47.09497 35944 ft 530 kts 102°
2026-05-04 15:38 23.52290 47.17425 35941 ft 530 kts 102°
2026-05-04 15:38 23.50952 47.25321 35942 ft 531 kts 102°
2026-05-04 15:39 23.49611 47.33204 35948 ft 530 kts 102°
2026-05-04 15:40 23.47699 47.45074 35944 ft 531 kts 96°
2026-05-04 15:40 23.48093 47.53121 35947 ft 534 kts 78°
2026-05-04 15:41 23.49917 47.60954 35944 ft 535 kts 75°
2026-05-04 15:41 23.51825 47.68800 35926 ft 534 kts 76°
2026-05-04 15:42 23.53715 47.76590 35917 ft 533 kts 75°
2026-05-04 15:42 23.55583 47.84303 35914 ft 534 kts 75°
2026-05-04 15:43 23.57469 47.92113 35921 ft 535 kts 76°
2026-05-04 15:43 23.59355 47.99937 35918 ft 534 kts 75°
2026-05-04 15:44 23.61235 48.07758 35919 ft 534 kts 76°
2026-05-04 15:44 23.63115 48.15599 35915 ft 535 kts 76°
2026-05-04 15:45 23.64993 48.23450 35910 ft 535 kts 75°
2026-05-04 15:45 23.66866 48.31294 35906 ft 534 kts 75°
2026-05-04 15:46 23.68734 48.39140 35906 ft 534 kts 75°
2026-05-04 15:46 23.70597 48.46983 35903 ft 534 kts 75°
2026-05-04 15:47 23.72452 48.54812 35897 ft 535 kts 75°
2026-05-04 15:47 23.74305 48.62648 35886 ft 533 kts 75°
2026-05-04 15:48 23.76162 48.70523 35867 ft 534 kts 76°
2026-05-04 15:48 23.78933 48.82311 35859 ft 535 kts 76°
2026-05-04 15:49 23.80775 48.90170 35855 ft 533 kts 76°
2026-05-04 15:49 23.82609 48.98012 35853 ft 534 kts 76°
2026-05-04 15:50 23.84446 49.05890 35854 ft 534 kts 76°
2026-05-04 15:50 23.86282 49.13778 35852 ft 535 kts 76°
2026-05-04 15:51 23.88111 49.21658 35853 ft 534 kts 76°
2026-05-04 15:51 23.89934 49.29535 35854 ft 534 kts 76°
2026-05-04 15:52 23.91729 49.37304 35854 ft 533 kts 76°
2026-05-04 15:52 23.93537 49.45152 35852 ft 533 kts 76°
2026-05-04 15:53 23.95353 49.53053 35849 ft 534 kts 76°
2026-05-04 15:53 23.97155 49.60916 35849 ft 535 kts 76°
2026-05-04 15:54 23.98957 49.68798 35837 ft 533 kts 76°
2026-05-04 15:54 24.00749 49.76651 35835 ft 533 kts 76°
2026-05-04 15:55 24.02536 49.84509 35836 ft 534 kts 76°
2026-05-04 15:55 24.04326 49.92393 35835 ft 533 kts 76°
2026-05-04 15:56 24.06113 50.00289 35831 ft 533 kts 76°
2026-05-04 15:56 24.07890 50.08157 35831 ft 533 kts 76°
2026-05-04 15:57 24.09673 50.16074 35832 ft 534 kts 76°
2026-05-04 15:57 24.11447 50.23973 35827 ft 533 kts 76°
2026-05-04 15:58 24.13218 50.31879 35821 ft 534 kts 76°
2026-05-04 15:58 24.14988 50.39797 35820 ft 535 kts 76°
2026-05-04 15:59 24.16753 50.47715 35809 ft 536 kts 76°
2026-05-04 15:59 24.17638 50.51694 35580 ft 534 kts 76°
2026-05-04 15:59 24.18511 50.55624 35163 ft 528 kts 76°
2026-05-04 16:00 24.19370 50.59497 34731 ft 522 kts 76°
2026-05-04 16:00 24.20222 50.63341 34297 ft 517 kts 76°
2026-05-04 16:00 24.21068 50.67164 33841 ft 516 kts 76°
2026-05-04 16:00 24.21917 50.71006 33188 ft 523 kts 76°
2026-05-04 16:01 24.22772 50.74874 32472 ft 527 kts 76°
2026-05-04 16:01 24.23636 50.78795 31775 ft 527 kts 76°
2026-05-04 16:01 24.24492 50.82682 31088 ft 526 kts 76°
2026-05-04 16:01 24.25346 50.86566 30363 ft 526 kts 76°
2026-05-04 16:02 24.26200 50.90452 29629 ft 525 kts 76°
2026-05-04 16:02 24.27024 50.94211 28928 ft 525 kts 76°
2026-05-04 16:02 24.28726 51.01985 27524 ft 523 kts 76°
2026-05-04 16:03 24.29570 51.05845 26826 ft 522 kts 76°
2026-05-04 16:03 24.30411 51.09698 26130 ft 520 kts 76°
2026-05-04 16:03 24.31247 51.13533 25437 ft 518 kts 76°
2026-05-04 16:03 24.32111 51.17346 24737 ft 516 kts 73°
2026-05-04 16:04 24.33354 51.21002 24039 ft 512 kts 64°
2026-05-04 16:04 24.37219 51.27455 22696 ft 501 kts 46°
2026-05-04 16:04 24.39656 51.30119 22181 ft 490 kts 42°
2026-05-04 16:05 24.42116 51.32649 21673 ft 480 kts 42°
2026-05-04 16:05 24.44529 51.35126 21164 ft 471 kts 42°
2026-05-04 16:05 24.49241 51.39974 20182 ft 459 kts 42°
2026-05-04 16:06 24.51574 51.42326 19712 ft 452 kts 39°
2026-05-04 16:06 24.58705 51.46869 18250 ft 441 kts 25°
2026-05-04 16:07 24.62357 51.48840 17503 ft 437 kts 25°
2026-05-04 16:07 24.70267 51.53073 16994 ft 397 kts 23°
2026-05-04 16:08 24.72766 51.54285 16968 ft 381 kts 22°
2026-05-04 16:08 24.79854 51.57717 15987 ft 367 kts 22°
2026-05-04 16:09 24.84172 51.60648 15119 ft 363 kts 42°
2026-05-04 16:09 24.87243 51.65069 14049 ft 367 kts 59°
2026-05-04 16:10 24.89777 51.69970 12955 ft 370 kts 59°
2026-05-04 16:11 24.93544 51.77347 11453 ft 367 kts 59°
2026-05-04 16:11 24.94789 51.79793 10987 ft 365 kts 58°
2026-05-04 16:12 24.98400 51.86906 10012 ft 335 kts 58°
2026-05-04 16:12 25.01867 51.93056 9593 ft 302 kts 44°
2026-05-04 16:13 25.05160 51.95753 8973 ft 291 kts 23°
2026-05-04 16:13 25.08989 51.96915 8390 ft 281 kts
2026-05-04 16:14 25.12823 51.96541 7709 ft 276 kts 344°
2026-05-04 16:14 25.16407 51.95025 6958 ft 276 kts 338°
2026-05-04 16:15 25.21778 51.92653 5772 ft 277 kts 339°
2026-05-04 16:16 25.24677 51.90007 5036 ft 283 kts 297°
2026-05-04 16:16 25.23239 51.83864 4015 ft 303 kts 227°
2026-05-04 16:17 25.20128 51.80902 3812 ft 289 kts 224°
2026-05-04 16:18 25.15518 51.76594 3517 ft 288 kts 224°
2026-05-04 16:18 25.13987 51.75161 3428 ft 288 kts 225°
2026-05-04 16:19 25.09491 51.70947 3374 ft 266 kts 225°
2026-05-04 16:19 25.07088 51.68272 3257 ft 222 kts 253°
2026-05-04 16:20 25.08588 51.65209 2924 ft 160 kts
2026-05-04 16:20 25.10826 51.65586 2637 ft 162 kts
2026-05-04 16:21 25.14124 51.65571 2137 ft 153 kts 339°
2026-05-04 16:22 25.16070 51.64681 1869 ft 144 kts 340°
2026-05-04 16:22 25.18819 51.63479 1371 ft 143 kts 340°
2026-05-04 16:23 25.21667 51.62259 799 ft 148 kts 341°
2026-05-04 16:24 25.25557 51.60542 67 ft 150 kts 339°
2026-05-04 16:25 25.27135 51.59839 30 ft 90 kts 338°
2026-05-04 16:26 25.27525 51.59864 32 ft 7 kts 150°
2026-05-04 16:26 25.27329 51.59954 32 ft 14 kts 159°
2026-05-04 16:27 25.27128 51.60046 32 ft 16 kts 156°
2026-05-04 16:28 25.27074 51.60248 32 ft 13 kts 68°
2026-05-04 16:28 25.27167 51.60499 33 ft 13 kts 67°
2026-05-04 16:29 25.27350 51.61008 17 ft 20 kts 69°
2026-05-04 16:30 25.27496 51.61407 15 ft 15 kts 68°
2026-05-04 16:31 25.27526 51.61588 15 ft 11 kts 126°
2026-05-04 16:31 25.27255 51.61721 15 ft 14 kts 157°
2026-05-04 16:32 25.27024 51.61716 15 ft 13 kts 161°
2026-05-04 16:33 25.26828 51.61799 15 ft 14 kts 158°
2026-05-04 16:33 25.26643 51.61883 15 ft 14 kts 158°
2026-05-04 16:34 25.26511 51.61858 15 ft 10 kts 221°
2026-05-04 16:34 25.26452 51.61832 15 ft 8 kts 204°
2026-05-04 16:35 25.26380 51.61783 15 ft 0 kts 213°